Location: *
(58.4167°N, 22.5000°E)
Time: 14:08:37
(UTC+00:00)

Cosmos 1707 - Pass Details

Date: 22 September 2019
Orbit: 517 x 530 km, 82.5° (Epoch: 14 October)

Event Time Altitude Azimuth Distance (km) Brightness Sun altitude
Rises 17:33:47 0° 344° (NNW) 2,687 6.8 -9.0°
Reaches altitude 10° 17:35:58 10° 340° (NNW) 1,793 6.0 -9.3°
Maximum altitude 17:39:48 54° 263° (W) 653 3.6 -9.8°
Drops below altitude 10° 17:43:37 10° 186° (S) 1,780 5.3 -10.2°
Sets 17:45:47 0° 182° (S) 2,666 6.2 -10.5°
